Location: Newark
(7.0858°N, 171.3717°E)
Time: 23:19:17
(UTC+00:00)

Explorer 7 - All Passes

Search period start: 25 November 2020 00:00
Search period end: 05 December 2020 00:00
Orbit: 484 x 678 km, 50.3° (Epoch: 25 November)

Date Brightness Start Highest point End Pass type
(mag) Time Alt. Az. Time Alt. Az. Time Alt. Az.
25 Nov - 01:37:39 10° WSW 01:38:20 10° SW 01:39:02 10° SW daylight
25 Nov - 12:00:16 10° S 12:03:53 21° SE 12:07:26 10° ENE night (unlit)
25 Nov - 13:40:01 10° WSW 13:44:19 31° NW 13:48:26 10° N night (unlit)
25 Nov - 23:58:58 10° NW 00:02:41 83° NE 00:06:29 10° SE daylight
26 Nov - 12:03:56 10° SSW 12:08:30 39° SE 12:12:56 10° ENE night (unlit)
26 Nov - 13:45:53 10° W 13:48:58 17° NW 13:51:58 10° N night (unlit)
27 Nov - 00:03:46 10° WNW 00:07:16 39° SW 00:10:51 10° SSE daylight
27 Nov - 12:08:11 10° SSW 12:13:05 80° SE 12:17:49 10° NE night (unlit)
27 Nov - 22:28:50 10° N 22:31:36 20° NE 22:34:23 10° E daylight
28 Nov - 00:09:16 10° W 00:11:52 18° SW 00:14:30 10° S daylight
28 Nov - 10:35:03 10° SSE 10:37:15 13° SE 10:39:26 10° E night (unlit)
28 Nov - 12:12:55 10° SW 12:17:40 52° NW 12:22:17 10° NNE night (unlit)
28 Nov - 22:32:40 10° NNW 22:36:14 43° NE 22:39:48 10° SE daylight
29 Nov - 10:37:52 10° S 10:41:51 25° SE 10:45:47 10° ENE night (unlit)
29 Nov - 12:18:11 10° WSW 12:22:17 27° NW 12:26:18 10° N night (unlit)
29 Nov - 22:37:06 10° NW 22:40:50 77° SW 22:44:34 10° SSE daylight
30 Nov - 10:41:42 10° SSW 10:46:25 48° SE 10:51:04 10° NE night (unlit)
30 Nov - 12:24:18 10° W 12:26:57 14° NW 12:29:34 10° NNW night (unlit)
30 Nov - 21:03:42 10° NNE 21:05:03 12° NE 21:06:25 10° ENE daylight
30 Nov - 22:42:04 10° WNW 22:45:24 31° SW 22:48:45 10° S daylight
01 Dec - 10:46:05 10° SW 10:51:00 85° NW 10:55:50 10° NE night (unlit)
01 Dec - 21:06:38 10° N 21:09:44 24° NE 21:12:49 10° ESE daylight
01 Dec - 22:47:54 10° W 22:49:58 14° SW 22:52:04 10° SSW daylight
02 Dec - 09:12:17 10° SSE 09:15:12 16° SE 09:18:05 10° E night (unlit)
02 Dec - 10:50:57 10° WSW 10:55:36 43° NW 11:00:11 10° NNE night (unlit)
02 Dec - 21:10:39 10° NNW 21:14:21 55° NE 21:18:01 10° SE daylight
03 Dec - 09:15:31 10° S 09:19:45 30° SE 09:24:00 10° ENE visible
03 Dec - 10:56:22 10° WSW 11:00:13 23° NW 11:04:02 10° N night (unlit)
03 Dec - 21:15:13 10° NW 21:18:56 59° SW 21:22:36 10° SSE daylight
04 Dec - 09:19:31 10° SSW 09:24:19 58° SE 09:29:07 10° NE visible
04 Dec - 11:02:55 10° WNW 11:04:55 12° NW 11:06:54 10° NNW night (unlit)
04 Dec - 19:40:58 10° NNE 19:43:10 15° NE 19:45:20 10° E daylight
04 Dec - 21:20:20 10° WNW 21:23:29 25° SW 21:26:35 10° S daylight
